Theta_e
330 330 330 331 335 340 343 347 350 350 347 344 342 341 341 342 342 342 342 341 340 339 344 343 344 343 342 341 341 344 345 346
326 328 328 330 335 339 341 342 343 341 340 338 338 339 339 339 339 341 338 337 339 339 340 340 341 344 346 345 339 342 341 340
325 328 329 331 330 334 337 339 339 337 337 337 337 335 334 332 332 333 333 335 335 337 339 340 340 343 341 341 345 342 337 337
322 325 325 325 326 324 330 334 337 338 336 333 329 327 328 328 327 326 326 328 330 331 332 333 333 336 337 336 339 344 342 336
319 320 320 321 322 324 324 330 331 330 330 330 326 323 322 320 320 323 322 321 322 324 322 322 328 329 333 333 335 340 341 342
317 317 317 318 320 321 322 323 324 324 321 321 322 320 318 316 316 317 319 318 317 318 317 317 318 321 322 322 326 330 334 337
314 314 315 315 316 317 316 316 316 320 323 319 316 315 311 312 313 313 315 315 315 315 314 315 316 315 316 316 318 321 325 328
312 313 313 314 314 314 314 314 315 315 318 323 319 315 312 311 312 312 313 313 314 313 313 314 314 314 313 314 315 316 318 324
312 312 313 312 312 312 312 312 313 312 312 311 314 311 310 310 310 312 312 313 313 314 312 313 314 313 314 315 314 314 314 318
311 312 312 311 311 310 311 310 311 310 309 309 310 310 310 309 310 311 312 312 313 312 313 313 314 312 314 314 314 312 312 314
310 310 310 310 309 309 309 309 309 310 310 309 310 310 310 308 308 308 311 312 313 314 313 313 314 313 312 314 314 313 310 313
311 310 310 309 308 308 308 309 309 309 310 309 308 306 304 306 307 309 310 312 312 313 314 314 314 313 314 314 314 311 310 311
311 310 309 308 308 307 308 309 309 309 309 309 307 307 306 307 308 309 310 311 313 313 314 314 315 313 315 316 316 314 312 308
311 310 309 308 307 307 307 307 307 308 308 308 308 307 307 306 307 307 308 310 311 313 313 314 315 314 316 316 315 316 314 314
310 308 307 307 306 305 306 306 306 307 308 308 308 308 308 307 307 307 307 307 308 310 312 312 313 314 316 316 315 314 313 312
310 308 307 306 305 304 304 305 306 306 306 307 308 308 307 307 308 308 307 307 308 311 311 312 314 314 314 313 311 310 311 310
309 308 307 305 304 303 304 305 306 305 306 307 307 307 308 308 309 307 305 306 308 310 312 313 313 312 312 312 310 310 310 310
308 306 304 304 304 305 304 305 305 305 306 306 306 308 309 309 306 306 307 308 309 309 310 311 311 311 310 310 307 308 308 309
307 304 304 304 304 306 305 304 304 305 306 307 308 308 309 308 308 309 309 308 307 306 307 309 309 310 311 309 307 307 307 308
306 304 304 303 304 305 305 304 304 306 307 308 308 309 309 309 309 310 310 307 307 306 306 307 307 308 311 309 307 306 305 305
Wind_Speed
14 13 11 9 8 8 10 7 8 7 6 5 4 4 5 6 10 9 7 5 5 5 4 4 5 7 5 5 6 4 6 4
12 11 10 8 10 9 11 10 9 9 6 6 6 6 6 6 8 10 7 5 6 5 4 5 6 6 7 7 5 6 5 2
11 8 9 9 10 12 12 10 9 8 8 6 7 7 7 7 8 10 9 7 5 5 6 6 7 8 8 8 7 6 6 5
9 10 10 11 10 12 11 12 11 9 9 10 8 8 7 7 8 10 11 8 7 7 6 6 7 8 8 7 8 7 7 7
12 9 10 9 8 9 10 9 11 10 9 7 7 7 8 8 7 11 11 11 9 9 7 8 8 8 10 9 9 8 7 8
10 9 10 9 9 10 10 8 9 10 8 7 6 7 7 6 7 7 11 12 12 9 8 8 9 8 8 9 9 9 8 8
10 10 10 10 10 10 11 10 9 8 6 5 6 7 7 6 7 7 10 10 11 9 7 8 9 8 7 8 8 8 8 8
8 8 9 9 10 11 11 10 11 8 4 2 2 4 6 7 7 8 11 9 11 9 7 9 9 8 8 9 10 8 9 8
7 7 8 9 10 11 11 11 11 9 6 6 4 6 6 7 7 10 10 9 10 9 8 8 8 8 9 9 8 9 8 8
7 8 8 8 9 9 10 11 10 8 7 5 4 5 4 6 7 8 9 9 9 8 8 7 9 7 9 9 9 8 6 7
8 8 7 7 8 8 8 8 8 9 9 6 5 3 3 6 7 7 8 10 10 9 9 8 8 7 7 8 8 8 7 7
8 8 7 7 7 6 6 7 8 8 9 8 9 6 7 7 7 7 7 9 9 9 9 8 8 6 8 7 6 5 5 9
10 8 6 6 5 6 7 8 9 8 8 8 7 7 6 5 6 9 9 8 8 9 9 8 8 6 7 7 7 7 4 3
10 8 6 5 5 6 6 7 7 8 9 8 8 9 9 8 8 7 7 7 6 8 9 8 8 9 9 7 8 7 7 5
12 10 7 5 3 5 5 6 8 8 9 9 8 8 8 8 9 7 8 7 7 9 9 8 7 8 8 7 7 7 8 7
12 10 7 6 3 3 5 6 8 8 8 9 8 9 6 6 8 7 7 7 7 9 7 7 7 7 7 7 6 7 8 7
13 10 8 6 3 2 5 7 8 8 8 8 8 8 9 8 9 8 6 7 6 9 7 7 7 8 9 8 8 8 8 8
13 10 8 5 3 4 4 6 7 8 8 7 7 7 7 7 7 8 9 9 9 9 9 8 8 9 9 9 8 8 7 6
13 10 8 6 4 3 4 5 6 7 7 7 7 7 7 6 7 8 9 9 9 9 8 7 7 8 8 8 9 9 9 8
13 11 9 7 5 3 3 4 5 6 6 5 6 6 6 6 7 8 8 8 8 9 8 8 7 6 6 7 8 8 8 8
Wind_Direction
66 57 49 35 21 30 31 41 42 44 43 27 26 20 14 23 20 16 19 17 11 6 25 32 19 16 7 338 340 355 345 3
58 56 48 33 39 35 39 37 42 39 32 29 24 32 29 33 23 22 21 21 21 20 16 359 346 350 348 345 331 325 317 296
62 59 50 44 33 26 29 31 35 37 42 43 41 34 37 38 32 28 21 11 7 11 23 12 4 357 356 344 325 316 313 301
62 47 40 33 24 18 15 32 30 43 51 49 47 42 35 36 36 27 31 21 14 18 15 18 11 3 354 352 342 324 306 294
60 54 50 38 40 26 23 29 31 41 49 58 55 46 44 34 26 25 25 26 17 11 19 12 4 2 354 353 354 341 323 312
66 62 61 51 49 46 48 44 51 54 46 40 49 45 45 33 26 22 19 16 15 13 11 8 357 355 357 354 350 341 338 327
72 67 66 61 57 51 49 37 28 24 38 51 53 50 38 24 28 20 17 16 16 8 10 4 351 350 352 348 341 336 328 319
86 86 74 66 58 53 51 44 29 13 0 4 50 46 32 30 28 22 17 16 15 8 8 5 358 355 352 351 339 331 317 311
117 99 82 72 60 58 46 39 26 19 9 356 360 9 16 27 22 20 17 15 16 18 9 7 360 4 355 353 345 335 325 332
128 114 98 76 65 54 45 40 31 24 25 14 352 346 12 11 13 15 16 12 15 14 10 8 8 356 2 359 359 343 331 349
143 112 91 89 72 52 43 37 31 27 13 12 8 0 353 8 7 8 13 11 13 12 13 7 4 356 4 1 3 356 342 339
144 139 124 93 73 58 42 36 27 29 16 22 21 12 2 2 357 2 359 13 10 7 6 7 5 358 7 8 10 349 343 343
163 153 128 102 78 43 32 27 22 14 19 18 6 8 1 351 355 354 3 7 11 11 8 3 5 5 6 4 8 13 14 313
166 147 135 115 78 37 25 14 11 9 18 20 17 12 357 352 357 352 359 2 2 14 3 6 9 2 5 12 8 18 7 356
169 162 160 134 79 8 6 5 9 17 22 26 20 9 5 359 355 357 353 355 0 3 353 1 2 5 11 16 24 28 27 24
174 165 157 142 112 28 6 2 10 15 15 14 16 11 11 14 19 9 13 4 3 0 359 5 12 25 25 25 34 26 29 30
171 159 159 150 131 69 17 6 12 17 21 9 15 15 22 24 22 20 14 14 3 24 26 30 33 34 41 43 41 30 31 31
166 166 153 140 121 89 32 18 22 29 19 25 31 35 30 30 25 23 20 19 19 23 25 28 40 46 41 29 28 27 22 24
169 158 153 142 135 113 42 24 33 35 40 37 41 37 37 44 32 27 21 24 21 26 26 33 35 37 32 35 36 34 38 34
166 159 156 156 150 134 56 34 49 45 42 32 40 45 46 38 26 22 20 26 27 23 22 23 12 3 15 29 37 36 34 28